Flag for United Kingdom Weather past 2 weeks in Colchester, England, United Kingdom

Now
63 °F

Scattered clouds.


Feels Like: 63 °F
Forecast: 50 / 66 °F
Wind: 14 mph from West

Location: Cranfield

Current Time: Jul 28, 2015 at 6:49:41 PM

Latest Report: Jul 28, 2015 at 5:50 PM


Visibility: N/A

Pressure: 29.71 "Hg

Humidity: 56%

Dew point: 46 °F

Location of ColchesterLocation

Historic Weather in Colchester — Graph

°F

Colchester temperature yesterday

Maximum temperature yesterday: 64 °F (at 9:50 AM)
Minimum temperature yesterday: 61 °F (at 7:50 AM)
Average temperature yesterday: 62 °F

Past Weeks' High & Low Weather Summary

 TemperatureHumidityPressure
High75 °F (Jul 16, 3:50 PM)100% (Jul 14, 8:20 AM)30.09 "Hg (Jul 14, 8:20 AM)
Low54 °F (Jul 26, 2:20 PM)33% (Jul 19, 4:50 PM)29.39 "Hg (Jul 26, 7:50 PM)
Average64 °F70%29.85 "Hg
* Reported Jul 13 5:20 PM — Jul 28 5:20 PM, Colchester, Weather by CustomWeather, © 2015

Note: Actual official high and low records may vary slightly from our data, if they occured in-between our weather recording intervals... More about our weather records

Advertising

Colchester weather history for previous 24 hours

 ConditionsComfort  
Time TempWeatherWind HumidityBarometerVisibility
5:20 PM
Tue, Jul 28
63 °FScattered clouds.15 mph56%29.68 "HgN/A
4:50 PM63 °FScattered clouds.16 mph56%29.68 "HgN/A
4:20 PM64 °FScattered showers. Scattered clouds.15 mph56%29.68 "HgN/A
3:50 PM63 °FScattered clouds.15 mph64%29.68 "HgN/A
3:20 PM64 °FScattered clouds.14 mph64%29.68 "HgN/A
2:50 PM64 °FRain showers. Cloudy.14 mph60%29.68 "HgN/A
2:20 PM61 °FScattered clouds.7 mph83%29.68 "HgN/A
1:50 PM57 °FScattered clouds.8 mph94%29.68 "HgN/A
1:20 PM57 °FSleet. Partly sunny.12 mph88%29.68 "HgN/A
12:50 PM61 °FBroken clouds.15 mph68%29.65 "HgN/A
12:20 PM63 °FBroken clouds.15 mph64%29.65 "HgN/A
11:50 AM59 °FPartly sunny.12 mph72%29.65 "HgN/A
11:20 AM59 °FPartly sunny.15 mph72%29.65 "HgN/A
10:50 AM59 °FPartly sunny.12 mph72%29.62 "HgN/A
10:20 AM61 °FPartly sunny.16 mph68%29.62 "HgN/A
9:50 AM59 °FPartly sunny.13 mph68%29.62 "HgN/A
8:50 AM57 °FScattered clouds.15 mph72%29.62 "HgN/A
8:20 AM57 °FScattered clouds.16 mph72%29.62 "HgN/A
7:50 AM57 °FScattered clouds.15 mph72%29.62 "HgN/A
7:20 AM55 °FPassing clouds.12 mph77%29.62 "HgN/A
Weather by CustomWeather, © 2015

See weather overviewHow to use our weather pages